This demonstration page uses our WeatherBlox Daily Observations layout. Learn more.

Left ArrowRight Arrow

Hourly Observations for March 8, 2020

Temp ( °F °C ) Dew Point ( °F °C ) Humidity (%) Winds ( mph kmh ) Pressure ( in mb ) Visibility ( mi km ) Precip ( " mm )
12:53 am 00:53 Clear 29 -1.7 23 -5 78 78 N N/A 30.48 1032 10 16.0934 N/A
1:53 am 01:53 Clear 28 -2.2 23 -5 81 81 N N/A 30.48 1032 10 16.0934 N/A
3:53 am 03:53 Clear 27 -2.8 22 -5.6 81 81 N N/A 30.48 1032 10 16.0934 N/A
4:53 am 04:53 Clear 27 -2.8 22 -5.6 81 81 N N/A 30.47 1032 10 16.0934 N/A
5:53 am 05:53 Clear 26 -3.3 22 -5.6 84 84 N N/A 30.48 1032 10 16.0934 N/A
6:53 am 06:53 Clear 25 -3.9 21 -6.1 85 85 N N/A 30.48 1032 10 16.0934 N/A
7:53 am 07:53 Clear 27 -2.8 22 -5.6 81 81 N N/A 30.49 1032 10 16.0934 N/A
8:53 am 08:53 Sunny 31 -0.6 25 -3.9 79 79 N N/A 30.5 1033 10 16.0934 N/A
9:53 am 09:53 Sunny 40 4.4 27 -2.8 60 60 SE 3 6 30.5 1033 10 16.0934 N/A
10:53 am 10:53 Sunny 49 9.4 26 -3.3 41 41 VRB 6 9 30.48 1032 10 16.0934 N/A
11:53 am 11:53 Sunny 55 12.8 25 -3.9 31 31 SSW 10 17 30.46 1032 10 16.0934 N/A
12:53 pm 12:53 Sunny 58 14.4 26 -3.3 29 29 SSW 9 15 30.43 1031 10 16.0934 N/A
1:53 pm 13:53 Sunny 60 15.6 26 -3.3 27 27 SW 9 15 30.41 1030 10 16.0934 N/A
2:53 pm 14:53 Sunny 63 17.2 27 -2.8 26 26 S 7 11 30.38 1029 10 16.0934 N/A
3:53 pm 15:53 Sunny 65 18.3 26 -3.3 23 23 SSW 12 19 30.35 1028 10 16.0934 N/A
4:53 pm 16:53 Sunny 65 18.3 23 -5 20 20 SSW 12 19 30.34 1027 10 16.0934 N/A
5:53 pm 17:53 Sunny 66 18.9 25 -3.9 21 21 SSW 10 17 30.32 1027 10 16.0934 N/A
6:53 pm 18:53 Sunny 64 17.8 24 -4.4 22 22 SW 6 9 30.32 1027 10 16.0934 N/A
7:53 pm 19:53 Clear 61 16.1 23 -5 23 23 SSW 6 9 30.32 1027 10 16.0934 N/A
8:53 pm 20:53 Clear 55 12.8 24 -4.4 30 30 N N/A 30.32 1027 10 16.0934 N/A
9:53 pm 21:53 Clear 51 10.6 27 -2.8 39 39 N N/A 30.32 1027 10 16.0934 N/A
10:53 pm 22:53 Clear 51 10.6 28 -2.2 41 41 SSE 3 6 30.32 1027 10 16.0934 N/A
11:53 pm 23:53 Clear 46 7.8 29 -1.7 51 51 SSE 3 6 30.33 1027 10 16.0934 N/A

Powered by AerisWeather